Weather in Lugovoye

Russia / Kaliningrad Oblast     54°39′13″N   20°37′37″E
temp.,
°C
wind,
m/s
gust,
m/s
humid.,
%
clouds,
%
prec.,
mm/h
press.,
hPa
HPBL,
m
11 may, tue
tue1123:00+15se61681100 0.0 1014406
02:00+14sse6158586 0.0 1015406
05:00+13se615893 0.0 1014336
08:00+16se715815 0.0 1015492
11:00+20se814695 0.0 1015817
14:00+22se8136632 0.0 10141064
17:00+21se9146833 0.0 10131033
20:00+18se8167424 0.0 1013728
12 may, wed
wed1223:00+15se717685 0.0 1013619
02:00+13se7176780 0.0 1013472
05:00+11se6167311 0.0 1013437
08:00+15se817788 0.0 1013708
11:00+20se814685 0.0 10131092
14:00+22se812665 0.0 10121514
17:00+19se8116462 0.0 1012975
20:00+14se513730 0.0 1012413
13 may, thu
thu1323:00+11ese411830 0.0 1012241
02:00+8ese39925 0.0 1011164
05:00+7se34933 0.0 101071
08:00+12ese237453 0.0 1009339
11:00+13e4477100 0.4 1007672
14:00+12ese1185100 1.6 1006392
17:00+11ne1293100 0.3 1005152
20:00+10se1296100 0.4 100471
14 may, fri
fri1423:00+9ese3698100 2.2 1003287
02:00+9e3698100 4.7 1002277
05:00+9e3699100 0.3 1002270
08:00+11ese359379 0.7 1001421
11:00+13ese338141 0.5 1002745
14:00+15se347474 3.0 10021012
17:00+16se3476100 1.7 1002851
20:00+13se3490100 2.8 100264
15 may, sat
sat1523:00+10ssw229587 1.0 100235
02:00+9sw2295100 1.0 100328
05:00+7wsw379793 0.0 1004177
08:00+10wsw579482 0.0 1005434
11:00+13wsw577124 0.0 10071091
14:00+15wsw46649 0.1 10071138
17:00+15sw247481 0.2 1007730
20:00+12wnw228844 0.5 100725